• In Uzbekistan
  • List of Countries
  • For 7 days
  • Water Temperature
  • Satellite Maps
  • Weather Map
  • Weather Widgets
  • user-avatar
    Login

    Hourly Weather Osinovka

    Today, 20 June, Wednesday

    Time Temperature Precipitation Wind Pressure Humidity
    00:00 +16°C° 1.8 mm 1 mps 741 mmHg 91%
    01:00 +16°C° 0.6 mm 1 mps 740 mmHg 92%
    02:00 +16°C° 0.6 mm 1 mps 739 mmHg 93%
    03:00 +16°C° 0.6 mm 1 mps 739 mmHg 94%
    04:00 +16°C° 1.3 mm 1 mps 738 mmHg 94%
    05:00 +16°C° 1.3 mm 1 mps 737 mmHg 94%
    06:00 +16°C° 1.3 mm 1 mps 737 mmHg 94%
    07:00 +16°C° 1.1 mm 1 mps 736 mmHg 92%
    08:00 +18°C° 1.1 mm 1 mps 735 mmHg 90%
    09:00 +17°C° 1.1 mm 2 mps 734 mmHg 87%
    10:00 +17°C° 1 mm 2 mps 734 mmHg 88%
    11:00 +17°C° 1 mm 2 mps 734 mmHg 88%
    12:00 +16°C° 1 mm 3 mps 734 mmHg 88%
    13:00 +16°C° 0.6 mm 3 mps 734 mmHg 88%
    14:00 +14°C° 0.6 mm 4 mps 734 mmHg 88%
    15:00 +14°C° 0.6 mm 4 mps 734 mmHg 88%
    16:00 +13°C° 1.3 mm 4 mps 734 mmHg 89%
    17:00 +10°C° 1.3 mm 5 mps 734 mmHg 91%
    18:00 +9°C° 1.3 mm 5 mps 734 mmHg 92%
    19:00 +10°C° 0.2 mm 4 mps 734 mmHg 92%
    20:00 +10°C° 0.2 mm 4 mps 734 mmHg 93%
    21:00 +10°C° 0.2 mm 3 mps 734 mmHg 93%
    22:00 +10°C° 0.2 mm 3 mps 733 mmHg 94%
    23:00 +10°C° 0.2 mm 3 mps 733 mmHg 95%

    Tomorrow, 21 June, Thursday

    Time Temperature Precipitation Wind Pressure Humidity
    00:00 +10°C° 0.2 mm 3 mps 733 mmHg 96%
    01:00 +11°C° 0.5 mm 3 mps 733 mmHg 96%
    02:00 +11°C° 0.5 mm 4 mps 733 mmHg 96%
    03:00 +12°C° 0.5 mm 4 mps 734 mmHg 95%
    04:00 +12°C° 0.5 mm 5 mps 734 mmHg 95%
    05:00 +12°C° 0.5 mm 5 mps 735 mmHg 94%
    06:00 +12°C° 0.5 mm 5 mps 735 mmHg 93%
    07:00 +12°C° 0.6 mm 5 mps 736 mmHg 92%
    08:00 +12°C° 0.6 mm 5 mps 736 mmHg 92%
    09:00 +12°C° 0.6 mm 5 mps 737 mmHg 91%
    10:00 +12°C° 0.8 mm 5 mps 738 mmHg 88%
    11:00 +13°C° 0.8 mm 4 mps 739 mmHg 85%
    12:00 +14°C° 0.8 mm 4 mps 739 mmHg 82%
    13:00 +14°C° 0.5 mm 4 mps 740 mmHg 79%
    14:00 +16°C° 0.5 mm 3 mps 741 mmHg 76%
    15:00 +17°C° 0.5 mm 3 mps 741 mmHg 73%
    16:00 +17°C° 0.1 mm 3 mps 742 mmHg 71%
    17:00 +17°C° 0.1 mm 2 mps 742 mmHg 69%
    18:00 +18°C° 0.1 mm 2 mps 743 mmHg 66%
    19:00 +17°C° 0 mm 2 mps 743 mmHg 69%
    20:00 +15°C° 0 mm 1 mps 743 mmHg 72%
    21:00 +14°C° 0 mm 1 mps 744 mmHg 74%
    22:00 +13°C° 0 mm 1 mps 744 mmHg 76%
    23:00 +12°C° 0 mm 1 mps 744 mmHg 78%

    Day after tomorrow, 22 June, Friday

    Time Temperature Precipitation Wind Pressure Humidity
    00:00 +10°C° 0 mm 2 mps 745 mmHg 81%
    01:00 +9°C° 0 mm 2 mps 745 mmHg 81%
    02:00 +9°C° 0 mm 2 mps 745 mmHg 81%
    03:00 +9°C° 0 mm 2 mps 746 mmHg 81%
    04:00 +12°C° 0 mm 2 mps 746 mmHg 75%
    05:00 +13°C° 0 mm 2 mps 746 mmHg 69%
    06:00 +15°C° 0 mm 2 mps 747 mmHg 63%
    07:00 +17°C° 0 mm 2 mps 747 mmHg 54%
    08:00 +19°C° 0 mm 2 mps 747 mmHg 45%
    09:00 +21°C° 0 mm 2 mps 747 mmHg 36%
    10:00 +23°C° 0 mm 2 mps 747 mmHg 34%
    11:00 +24°C° 0 mm 2 mps 747 mmHg 32%
    12:00 +24°C° 0 mm 2 mps 747 mmHg 29%
    13:00 +25°C° 0 mm 2 mps 746 mmHg 29%
    14:00 +26°C° 0 mm 2 mps 746 mmHg 29%
    15:00 +26°C° 0 mm 2 mps 746 mmHg 29%
    16:00 +26°C° 0 mm 2 mps 746 mmHg 32%
    17:00 +26°C° 0 mm 2 mps 746 mmHg 34%
    18:00 +25°C° 0 mm 2 mps 746 mmHg 37%
    19:00 +24°C° 0 mm 2 mps 746 mmHg 45%
    20:00 +21°C° 0 mm 2 mps 746 mmHg 53%
    21:00 +20°C° 0 mm 3 mps 745 mmHg 60%
    22:00 +19°C° 0 mm 3 mps 745 mmHg 63%
    23:00 +19°C° 0 mm 3 mps 745 mmHg 67%

    23 June, Saturday

    Time Temperature Precipitation Wind Pressure Humidity
    00:00 +18°C° 0 mm 3 mps 745 mmHg 70%
    01:00 +18°C° 0.2 mm 3 mps 745 mmHg 75%
    02:00 +18°C° 0.2 mm 3 mps 745 mmHg 81%
    03:00 +18°C° 0.2 mm 3 mps 745 mmHg 87%
    04:00 +18°C° 0.6 mm 3 mps 745 mmHg 87%
    05:00 +19°C° 0.6 mm 3 mps 745 mmHg 88%
    06:00 +20°C° 0.6 mm 3 mps 746 mmHg 89%
    07:00 +20°C° 0.2 mm 3 mps 746 mmHg 86%
    08:00 +21°C° 0.2 mm 3 mps 746 mmHg 82%
    09:00 +22°C° 0.2 mm 3 mps 746 mmHg 79%
    10:00 +24°C° 0 mm 3 mps 747 mmHg 68%
    11:00 +25°C° 0 mm 3 mps 747 mmHg 57%
    12:00 +27°C° 0 mm 3 mps 747 mmHg 46%
    13:00 +27°C° 0 mm 3 mps 747 mmHg 41%
    14:00 +28°C° 0 mm 3 mps 747 mmHg 37%
    15:00 +28°C° 0 mm 3 mps 747 mmHg 33%
    16:00 +28°C° 0 mm 2 mps 748 mmHg 34%
    17:00 +27°C° 0 mm 2 mps 748 mmHg 35%
    18:00 +27°C° 0 mm 2 mps 748 mmHg 36%
    19:00 +25°C° 0 mm 1 mps 748 mmHg 43%
    20:00 +23°C° 0 mm 1 mps 748 mmHg 50%
    21:00 +21°C° 0 mm 1 mps 748 mmHg 58%
    22:00 +20°C° 0 mm 1 mps 749 mmHg 60%
    23:00 +19°C° 0 mm 1 mps 749 mmHg 62%

    24 June, Sunday

    Time Temperature Precipitation Wind Pressure Humidity
    00:00 +18°C° 0 mm 1 mps 749 mmHg 64%
    01:00 +18°C° 0 mm 1 mps 749 mmHg 65%
    02:00 +18°C° 0 mm 1 mps 749 mmHg 66%
    03:00 +18°C° 0 mm 1 mps 749 mmHg 67%
    04:00 +18°C° 0 mm 2 mps 749 mmHg 63%
    05:00 +20°C° 0 mm 2 mps 749 mmHg 59%
    06:00 +21°C° 0 mm 2 mps 748 mmHg 55%
    07:00 +24°C° 0 mm 3 mps 748 mmHg 54%
    08:00 +26°C° 0 mm 3 mps 748 mmHg 52%
    09:00 +28°C° 0 mm 3 mps 748 mmHg 50%
    10:00 +29°C° 0 mm 3 mps 748 mmHg 46%
    11:00 +31°C° 0 mm 3 mps 747 mmHg 43%
    12:00 +33°C° 0 mm 3 mps 747 mmHg 40%
    13:00 +31°C° 0 mm 3 mps 747 mmHg 42%
    14:00 +31°C° 0 mm 3 mps 746 mmHg 44%
    15:00 +30°C° 0 mm 3 mps 746 mmHg 46%
    16:00 +30°C° 0 mm 3 mps 746 mmHg 45%
    17:00 +30°C° 0 mm 3 mps 746 mmHg 45%
    18:00 +30°C° 0 mm 4 mps 745 mmHg 44%
    19:00 +28°C° 0.1 mm 3 mps 745 mmHg 52%
    20:00 +26°C° 0.1 mm 3 mps 745 mmHg 60%
    21:00 +25°C° 0.1 mm 2 mps 745 mmHg 68%
    22:00 +22°C° 0.4 mm 3 mps 745 mmHg 75%
    23:00 +21°C° 0.4 mm 3 mps 746 mmHg 82%

    25 June, Monday

    Time Temperature Precipitation Wind Pressure Humidity
    00:00 +19°C° 0.4 mm 4 mps 746 mmHg 89%
    01:00 +18°C° 0 mm 4 mps 746 mmHg 88%
    02:00 +15°C° 0 mm 4 mps 747 mmHg 88%
    03:00 +13°C° 0 mm 4 mps 747 mmHg 87%
    04:00 +14°C° 0 mm 4 mps 748 mmHg 82%
    05:00 +14°C° 0 mm 4 mps 748 mmHg 77%
    06:00 +14°C° 0 mm 5 mps 749 mmHg 72%
    07:00 +16°C° 0 mm 5 mps 749 mmHg 65%
    08:00 +18°C° 0 mm 4 mps 749 mmHg 57%
    09:00 +19°C° 0 mm 4 mps 749 mmHg 50%
    10:00 +21°C° 0 mm 4 mps 749 mmHg 45%
    11:00 +22°C° 0 mm 4 mps 749 mmHg 41%
    12:00 +23°C° 0 mm 4 mps 749 mmHg 37%
    13:00 +25°C° 0 mm 4 mps 749 mmHg 37%
    14:00 +25°C° 0 mm 4 mps 749 mmHg 38%
    15:00 +25°C° 0 mm 3 mps 749 mmHg 38%
    16:00 +25°C° 0 mm 3 mps 749 mmHg 41%
    17:00 +24°C° 0 mm 3 mps 750 mmHg 44%
    18:00 +23°C° 0 mm 2 mps 750 mmHg 47%
    19:00 +21°C° 0 mm 2 mps 750 mmHg 53%
    20:00 +20°C° 0 mm 2 mps 750 mmHg 59%
    21:00 +19°C° 0 mm 1 mps 750 mmHg 64%
    22:00 +18°C° 0 mm 1 mps 750 mmHg 68%
    23:00 +16°C° 0 mm 1 mps 751 mmHg 71%
    Show more